sat.trackr.live / text

‹ back to catalog

STARLINK-3271

NORAD 50167 · 2021-125M

PAYLOAD ACTIVE UNKNOWN

§ Identity

Operator
Country
US
Launch date
2021-12-18
Launch site
AFWTR
Launch vehicle
Mass (kg)
RCS (m²)

Purposes: comms

External: N2YO · Heavens-Above · Gunter

§ Orbital elements

Epoch: 2026-09-19T22:44:20.956128Z

Period
93.79 min
Inclination
53.1587°
Eccentricity
0.0001188
Mean motion
15.35386463 rev/d
Perigee alt
459.0 km
Apogee alt
460.6 km
Semi-major
6,837.9 km
B*
5.3005e-5
RAAN
94.9913°
Arg perigee
86.0294°
Mean anomaly
274.0844°
Rev number
26,594

§ Raw data

STARLINK-32711 50167U 21125M   26262.94746477  .00001468  00000+0  53005-4 0  99912 50167  53.1587  94.9913 0001188  86.0294 274.0844 15.35386463265941

JSON: /api/v1/satellites/50167 · /tle

For live sub-satellite position, see the globe view (requires WebGL).

§ Visibility from observer

Set your observer location to see the next 7 days of passes ≥ 10°. The values pass through the URL so the page stays shareable.

No JS? Fill the form by hand. The geolocation button needs JavaScript.